| time (UTC) | temp F | wind direction | speed MPH | gust MPH | rain 1hr in | rain 24hr in | rain mn in | humidity % | barometer mb |
| 20260903233056 | 62 | 123 | 0.0 | 2.0 | 0.00 | 0.33 | 0.32 | 83 | 1009.0 |
| 20260903231555 | 60 | 101 | 0.0 | 4.0 | 0.00 | 0.33 | 0.32 | 84 | 1009.1 |
| 20260903230056 | 61 | 111 | 0.0 | 2.0 | 0.00 | 0.33 | 0.32 | 85 | 1009.1 |
| 20260903224556 | 60 | 117 | 0.0 | 3.0 | 0.00 | 0.33 | 0.32 | 85 | 1009.0 |
| 20260903223054 | 60 | 74 | 0.0 | 5.0 | 0.00 | 0.33 | 0.32 | 84 | 1009.0 |
| 20260903221554 | 60 | 105 | 0.0 | 5.0 | 0.00 | 0.33 | 0.32 | 83 | 1009.1 |
| 20260903220104 | 60 | 110 | 2.0 | 10.0 | 0.00 | 0.33 | 0.32 | 80 | 1009.1 |
| 20260903214552 | 61 | 106 | 0.0 | 7.0 | 0.00 | 0.33 | 0.32 | 81 | 1009.1 |
| 20260903213057 | 62 | 143 | 3.0 | 10.0 | 0.00 | 0.33 | 0.32 | 77 | 1009.0 |
| 20260903211553 | 62 | 105 | 4.0 | 12.0 | 0.00 | 0.33 | 0.32 | 78 | 1008.9 |
| 20260903210053 | 63 | 107 | 3.0 | 8.0 | 0.00 | 0.33 | 0.32 | 79 | 1008.7 |
| 20260903204546 | 61 | 219 | 1.0 | 4.0 | 0.00 | 0.35 | 0.32 | 83 | 1008.6 |
| 20260903203106 | 62 | 201 | 0.0 | 4.0 | 0.00 | 0.35 | 0.32 | 82 | 1008.5 |
| 20260903201544 | 63 | 101 | 1.0 | 5.0 | 0.00 | 0.35 | 0.32 | 80 | 1008.4 |
| 20260903200040 | 62 | 89 | 6.0 | 10.0 | 0.00 | 0.35 | 0.32 | 83 | 1008.6 |
| 20260903194539 | 61 | 97 | 0.0 | 6.0 | 0.00 | 0.38 | 0.32 | 85 | 1008.6 |
| 20260903193038 | 60 | 66 | 2.0 | 9.0 | 0.00 | 0.38 | 0.32 | 89 | 1008.7 |
| 20260903191533 | 59 | 93 | 2.0 | 10.0 | 0.01 | 0.38 | 0.32 | 89 | 1008.7 |
| 20260903190032 | 59 | 108 | 2.0 | 9.0 | 0.01 | 0.38 | 0.32 | 92 | 1008.7 |
| 20260903184534 | 59 | 96 | 0.0 | 10.0 | 0.03 | 0.39 | 0.32 | 93 | 1008.5 |
| 20260903183036 | 58 | 115 | 1.0 | 10.0 | 0.04 | 0.39 | 0.32 | 94 | 1008.6 |
| 20260903181526 | 57 | 128 | 0.0 | 4.0 | 0.03 | 0.38 | 0.31 | 95 | 1008.8 |
| 20260903180026 | 57 | 136 | 0.0 | 7.0 | 0.03 | 0.38 | 0.31 | 95 | 1008.7 |
| 20260903174524 | 57 | 124 | 1.0 | 9.0 | 0.01 | 0.36 | 0.28 | 93 | 1008.5 |
| 20260903173021 | 57 | 113 | 0.0 | 10.0 | 0.00 | 0.35 | 0.28 | 93 | 1008.5 |
| 20260903171520 | 57 | 115 | 2.0 | 11.0 | 0.00 | 0.35 | 0.28 | 94 | 1008.3 |
| 20260903170018 | 57 | 108 | 1.0 | 10.0 | 0.00 | 0.35 | 0.28 | 94 | 1008.3 |
| 20260903164518 | 57 | 159 | 2.0 | 7.0 | 0.00 | 0.35 | 0.28 | 96 | 1008.1 |
| 20260903163015 | 56 | 91 | 1.0 | 7.0 | 0.00 | 0.35 | 0.28 | 96 | 1008.1 |
| 20260903161514 | 55 | 119 | 0.0 | 6.0 | 0.00 | 0.35 | 0.28 | 96 | 1008.1 |
| 20260903160019 | 55 | 98 | 0.0 | 8.0 | 0.00 | 0.35 | 0.28 | 97 | 1008.0 |
| 20260903154513 | 55 | 95 | 0.0 | 5.0 | 0.00 | 0.35 | 0.28 | 97 | 1008.2 |
| 20260903153012 | 55 | 99 | 0.0 | 4.0 | 0.01 | 0.35 | 0.28 | 97 | 1008.0 |
| 20260903151511 | 55 | 94 | 0.0 | 6.0 | 0.03 | 0.35 | 0.28 | 97 | 1007.9 |
| 20260903150016 | 54 | 96 | 0.0 | 6.0 | 0.05 | 0.35 | 0.28 | 97 | 1008.0 |
| 20260903144533 | 54 | 146 | 0.0 | 3.0 | 0.05 | 0.35 | 0.28 | 97 | 1007.8 |
| 20260903143007 | 54 | 115 | 0.0 | 1.0 | 0.03 | 0.33 | 0.26 | 97 | 1007.6 |
| 20260903141506 | 54 | 109 | 0.0 | 1.0 | 0.04 | 0.32 | 0.25 | 97 | 1007.5 |
| 20260903140006 | 54 | 120 | 0.0 | 1.0 | 0.04 | 0.30 | 0.23 | 97 | 1007.5 |
| 20260903134504 | 54 | 120 | 0.0 | 3.0 | 0.05 | 0.30 | 0.23 | 97 | 1007.4 |
| 20260903133003 | 54 | 115 | 0.0 | 5.0 | 0.06 | 0.30 | 0.23 | 97 | 1007.4 |
| 20260903131601 | 54 | 64 | 1.0 | 7.0 | 0.06 | 0.28 | 0.21 | 97 | 1007.2 |
| 20260903130100 | 54 | 113 | 1.0 | 9.0 | 0.08 | 0.26 | 0.19 | 97 | 1006.9 |
| 20260903124610 | 54 | 80 | 0.0 | 6.0 | 0.09 | 0.25 | 0.18 | 96 | 1006.9 |
| 20260903123059 | 54 | 109 | 0.0 | 3.0 | 0.08 | 0.24 | 0.17 | 96 | 1006.7 |
| 20260903121606 | 54 | 95 | 0.0 | 5.0 | 0.08 | 0.22 | 0.15 | 96 | 1006.9 |
| 20260903114556 | 55 | 105 | 0.0 | 7.0 | 0.03 | 0.16 | 0.09 | 96 | 1006.8 |
| 20260903113133 | 55 | 75 | 0.0 | 6.0 | 0.05 | 0.16 | 0.09 | 96 | 1006.9 |
| 20260903111553 | 55 | 86 | 2.0 | 7.0 | 0.06 | 0.14 | 0.07 | 95 | 1007.0 |
| 20260903110059 | 55 | 115 | 1.0 | 7.0 | 0.05 | 0.13 | 0.06 | 95 | 1006.9 |
| 20260903104602 | 55 | 114 | 1.0 | 7.0 | 0.05 | 0.13 | 0.06 | 94 | 1006.8 |
| 20260903103049 | 55 | 105 | 1.0 | 5.0 | 0.03 | 0.11 | 0.04 | 93 | 1006.8 |
| 20260903101550 | 56 | 105 | 1.0 | 10.0 | 0.00 | 0.08 | 0.01 | 92 | 1006.7 |
| 20260903100048 | 56 | 115 | 3.0 | 7.0 | 0.00 | 0.08 | 0.01 | 91 | 1006.6 |
| 20260903094553 | 56 | 109 | 1.0 | 10.0 | 0.00 | 0.08 | 0.01 | 92 | 1006.6 |
| 20260903093046 | 56 | 109 | 2.0 | 10.0 | 0.01 | 0.08 | 0.01 | 93 | 1006.6 |
| 20260903091550 | 56 | 113 | 0.0 | 10.0 | 0.01 | 0.08 | 0.01 | 92 | 1006.5 |
| 20260903090048 | 56 | 89 | 2.0 | 8.0 | 0.01 | 0.08 | 0.01 | 93 | 1006.6 |
| 20260903084543 | 56 | 76 | 0.0 | 6.0 | 0.01 | 0.08 | 0.01 | 92 | 1006.6 |
| 20260903083042 | 56 | 95 | 1.0 | 7.0 | 0.00 | 0.07 | 0.00 | 92 | 1006.8 |
| 20260903081541 | 56 | 101 | 0.0 | 7.0 | 0.00 | 0.07 | 0.00 | 91 | 1006.6 |
| 20260903080040 | 56 | 109 | 2.0 | 9.0 | 0.00 | 0.07 | 0.00 | 91 | 1006.7 |
| 20260903074541 | 56 | 101 | 2.0 | 8.0 | 0.00 | 0.07 | 0.00 | 92 | 1006.6 |
| 20260903073037 | 55 | 142 | 1.0 | 9.0 | 0.01 | 0.07 | 0.00 | 92 | 1006.6 |
| 20260903071542 | 55 | 114 | 1.0 | 5.0 | 0.01 | 0.07 | 0.00 | 92 | 1006.4 |
| 20260903070033 | 55 | 150 | 0.0 | 0.0 | 0.01 | 0.07 | 0.00 | 91 | 1006.5 |
| 20260903064532 | 56 | 110 | 0.0 | 4.0 | 0.01 | 0.07 | 0.07 | 90 | 1006.6 |
| 20260903063030 | 56 | 105 | 0.0 | 2.0 | 0.00 | 0.06 | 0.06 | 88 | 1006.4 |
| 20260903061529 | 56 | 89 | 0.0 | 5.0 | 0.00 | 0.06 | 0.06 | 89 | 1006.7 |
| 20260903060029 | 56 | 138 | 0.0 | 7.0 | 0.00 | 0.06 | 0.06 | 88 | 1006.5 |
| 20260903054530 | 56 | 133 | 0.0 | 6.0 | 0.00 | 0.06 | 0.06 | 88 | 1006.5 |
| 20260903053027 | 56 | 138 | 0.0 | 4.0 | 0.00 | 0.06 | 0.06 | 89 | 1006.6 |
| 20260903051543 | 54 | 104 | 0.0 | 3.0 | 0.00 | 0.06 | 0.06 | 91 | 1006.5 |
| 20260903050026 | 53 | 153 | 0.0 | 0.0 | 0.00 | 0.06 | 0.06 | 90 | 1006.6 |
| 20260903044533 | 54 | 153 | 0.0 | 0.0 | 0.00 | 0.06 | 0.06 | 89 | 1006.6 |
| 20260903043056 | 55 | 152 | 0.0 | 1.0 | 0.00 | 0.06 | 0.06 | 88 | 1006.6 |
| 20260903041524 | 55 | 152 | 0.0 | 1.0 | 0.00 | 0.06 | 0.06 | 89 | 1006.6 |
| 20260903040023 | 54 | 117 | 0.0 | 2.0 | 0.00 | 0.06 | 0.06 | 89 | 1006.5 |
| 20260903034534 | 54 | 155 | 0.0 | 0.0 | 0.00 | 0.06 | 0.06 | 87 | 1006.3 |
| 20260903033021 | 54 | 155 | 0.0 | 0.0 | 0.00 | 0.06 | 0.06 | 88 | 1006.2 |
| 20260903031517 | 55 | 155 | 0.0 | 0.0 | 0.00 | 0.06 | 0.06 | 84 | 1006.0 |
| 20260903030016 | 57 | 155 | 0.0 | 0.0 | 0.00 | 0.06 | 0.06 | 82 | 1005.9 |
| 20260903024522 | 58 | 155 | 0.0 | 0.0 | 0.00 | 0.06 | 0.06 | 79 | 1005.9 |
| 20260903023015 | 60 | 165 | 0.0 | 0.0 | 0.00 | 0.06 | 0.06 | 77 | 1005.7 |
| 20260903021515 | 61 | 165 | 0.0 | 3.0 | 0.00 | 0.06 | 0.06 | 74 | 1005.6 |
| 20260903020015 | 63 | 143 | 0.0 | 4.0 | 0.00 | 0.06 | 0.06 | 72 | 1005.6 |
| 20260903014518 | 62 | 204 | 1.0 | 5.0 | 0.00 | 0.06 | 0.06 | 73 | 1005.5 |
| 20260903013011 | 61 | 108 | 2.0 | 15.0 | 0.00 | 0.06 | 0.06 | 74 | 1005.5 |
| 20260903011515 | 62 | 192 | 2.0 | 7.0 | 0.00 | 0.06 | 0.06 | 71 | 1005.2 |
| 20260903010010 | 63 | 124 | 2.0 | 6.0 | 0.00 | 0.06 | 0.06 | 70 | 1005.1 |
| 20260903004510 | 65 | 165 | 1.0 | 8.0 | 0.00 | 0.06 | 0.06 | 69 | 1005.1 |
| 20260903003009 | 64 | 117 | 1.0 | 9.0 | 0.00 | 0.06 | 0.06 | 73 | 1005.1 |
| 20260903001506 | 64 | 129 | 2.0 | 12.0 | 0.00 | 0.06 | 0.06 | 71 | 1005.0 |
| 20260903000005 | 64 | 182 | 4.0 | 13.0 | 0.00 | 0.07 | 0.06 | 74 | 1004.7 |
| 20260902234504 | 65 | 106 | 5.0 | 13.0 | 0.00 | 0.07 | 0.06 | 76 | 1004.3 |